Wind_Speed
61 62 62 62 63 64 64 65 65 66 67 68 69 69 70 72 73 74 75 76 77 77 78 79 80 81 81 82 83 84 85 86 87 87 88 89 89 89 89 89 88 88 87 86 85 85 84 83 83 82 82 81 81 80 80 80 80 80 80 80 80 80 80 79 79 78 77 77 76 76 76 76 76 76 76 76 75 75 74 74 74 73 72 71 71 70
62 63 63 63 64 65 66 67 67 68 69 70 71 72 72 74 75 76 77 77 78 79 80 81 82 83 83 84 85 86 87 87 88 88 88 88 88 87 86 85 84 82 81 80 79 79 78 77 77 77 76 76 76 75 75 75 75 75 75 75 75 75 76 76 76 76 76 75 75 75 75 75 75 75 75 75 75 75 75 75 74 74 74 73 73 72
63 64 64 65 65 66 67 69 69 70 70 72 73 74 74 75 76 78 78 79 80 81 82 83 84 85 86 86 87 87 87 87 87 86 85 84 83 82 81 79 78 77 76 76 75 75 74 74 74 74 73 73 73 73 73 73 72 72 72 72 72 72 72 73 73 73 73 73 73 73 74 74 74 74 75 75 75 75 75 75 75 75 74 74 74 74
64 65 66 67 67 68 69 70 71 71 72 73 74 75 76 77 78 79 80 81 81 83 84 84 85 86 86 87 87 86 85 84 83 82 81 80 78 77 76 76 75 75 74 74 74 74 74 74 73 73 73 73 73 73 73 72 72 72 72 71 71 71 71 71 71 71 71 71 72 72 73 73 73 74 74 75 75 75 75 75 75 75 75 75 75 75
66 67 68 69 69 70 71 72 72 73 74 75 75 76 77 78 80 81 82 82 83 84 85 85 85 85 85 85 84 82 81 80 79 78 77 76 76 76 75 75 75 75 75 75 75 75 75 75 75 75 74 74 74 74 74 73 73 73 72 72 72 71 71 71 70 70 70 70 71 71 71 72 73 73 73 74 74 75 75 75 75 75 75 75 76 76
68 69 69 70 71 72 72 73 74 75 75 76 77 78 79 80 81 82 83 84 84 84 84 84 83 82 81 80 79 78 77 76 76 76 76 76 76 77 77 77 77 77 77 77 77 77 77 77 77 77 76 76 76 76 75 75 75 74 74 73 73 73 72 72 71 71 71 70 70 70 71 71 72 72 73 73 74 74 75 75 76 76 76 76 76 76
70 70 71 71 72 73 74 75 76 76 77 78 79 80 81 82 83 83 83 83 82 82 81 80 79 77 76 76 76 75 75 76 76 77 77 78 78 79 79 79 79 79 79 79 79 79 79 79 79 79 79 78 78 78 78 77 77 77 76 76 75 75 74 74 73 73 72 72 71 71 71 71 71 72 72 72 73 74 74 75 76 76 76 77 77 77
71 72 72 73 74 75 76 77 78 78 79 80 81 82 82 82 82 81 81 80 78 77 76 75 75 74 74 74 75 75 76 77 78 78 79 80 80 80 81 81 81 81 81 81 81 81 81 81 81 81 81 80 80 80 80 80 79 79 79 78 78 77 77 76 75 75 74 74 73 73 72 72 72 72 72 72 72 73 73 74 75 76 77 77 77 78
72 73 74 75 75 76 78 79 80 80 80 80 81 81 80 79 79 77 76 75 74 74 74 73 74 74 75 76 76 77 78 79 79 80 80 81 82 82 82 83 83 83 83 83 83 83 83 83 83 83 83 83 82 82 82 82 82 81 81 81 80 80 79 79 78 78 77 76 76 75 75 74 74 73 73 73 72 72 73 73 74 75 76 77 77 78
73 74 76 77 78 78 79 80 81 81 79 78 78 77 76 75 74 74 73 73 73 73 74 74 75 76 77 78 78 79 80 80 81 82 82 83 83 84 84 85 85 85 85 86 86 86 86 86 86 85 85 85 85 85 84 84 84 84 84 83 83 83 82 82 81 80 80 79 78 78 77 76 76 75 75 74 73 73 73 73 73 74 75 76 77 77
75 76 77 78 79 79 79 79 79 78 76 75 74 73 73 72 72 72 73 74 74 75 76 76 77 78 79 80 80 81 81 82 83 84 84 85 85 86 86 87 87 88 88 88 88 88 88 88 88 88 88 88 87 87 87 87 86 86 86 86 85 85 85 84 84 83 83 82 81 80 80 79 78 78 77 76 75 75 74 74 73 74 74 75 75 76
77 77 78 78 78 77 76 75 74 73 72 71 71 72 72 72 72 73 74 75 76 77 77 78 79 80 81 81 82 83 84 84 85 86 86 87 88 88 89 89 89 90 90 90 90 90 90 90 90 90 90 90 90 89 89 89 88 88 88 88 87 87 87 87 86 86 85 85 84 83 82 82 81 80 79 79 78 77 76 75 75 74 74 74 75 75
76 76 75 75 74 73 72 71 71 70 70 70 71 72 73 74 74 75 76 77 78 78 79 80 81 82 83 84 85 85 86 87 87 88 88 89 90 90 90 91 91 91 91 91 91 91 91 90 90 91 90 90 90 90 90 90 89 89 89 89 88 88 88 88 88 88 88 87 87 86 85 85 84 83 82 81 80 80 79 78 77 76 75 75 75 75
73 72 71 70 70 69 69 69 70 70 71 72 72 73 74 75 76 77 78 79 80 80 81 82 83 84 85 86 87 88 88 88 89 89 89 90 90 90 90 90 90 90 89 89 89 89 89 88 88 88 89 88 88 89 89 89 89 88 88 88 88 88 88 88 88 89 89 89 88 88 88 87 86 86 85 84 83 82 81 80 80 79 78 77 76 76
69 68 67 67 68 68 69 69 70 71 72 73 74 75 76 77 78 79 80 81 82 82 83 84 85 86 87 88 88 89 89 88 88 88 88 88 89 89 88 87 87 87 87 86 85 86 86 85 84 85 85 85 85 86 86 86 86 86 86 86 87 87 87 87 87 88 88 89 89 89 89 89 88 88 87 87 86 85 84 83 82 81 80 79 79 78
66 66 66 67 68 69 70 71 72 73 74 74 75 76 77 79 80 81 82 83 84 84 85 86 86 87 87 87 88 88 87 86 86 85 84 84 85 85 84 83 83 84 84 82 82 83 83 82 82 82 82 82 82 83 83 83 83 84 84 84 84 85 85 85 85 86 86 87 88 88 89 89 89 89 89 89 88 87 87 86 85 84 83 82 81 80
66 66 67 68 69 70 71 72 73 74 75 76 77 78 79 81 82 83 83 84 85 85 85 85 85 84 84 84 85 85 83 82 82 82 81 80 81 81 80 79 79 80 80 79 79 79 80 79 79 79 79 79 80 80 80 80 81 81 81 82 82 82 83 83 83 84 84 85 86 86 87 88 89 89 90 90 90 89 89 88 87 86 86 85 84 83
67 68 68 69 70 71 72 73 75 76 77 78 79 80 81 82 83 83 84 84 84 84 83 83 82 81 80 79 80 81 80 78 78 78 77 76 76 77 76 75 75 76 76 76 76 76 76 76 77 77 77 77 77 78 78 78 78 78 79 79 79 80 80 81 81 82 82 83 83 84 85 86 87 89 89 90 91 91 91 90 90 89 88 87 86 85
68 68 69 70 72 73 74 75 76 77 78 79 80 81 82 82 82 82 82 82 81 80 80 79 78 78 76 75 76 77 76 74 74 75 74 73 73 74 74 72 72 73 73 73 73 73 74 74 74 74 75 75 75 76 76 76 76 76 76 77 77 77 78 78 79 80 80 81 81 82 83 84 85 87 88 89 90 91 91 91 91 91 90 90 89 88
69 70 71 72 73 74 76 77 78 79 79 80 80 80 80 80 80 79 79 78 77 77 76 75 74 74 73 72 73 74 73 72 72 72 72 71 71 72 72 70 70 71 71 71 71 71 71 71 72 72 72 73 73 74 74 74 74 74 74 75 75 75 76 76 77 77 78 79 79 80 81 82 83 84 86 87 89 90 91 92 92 92 92 92 91 90
70 71 72 73 75 76 77 78 78 79 79 79 79 78 78 77 76 75 75 74 73 73 72 71 70 70 70 69 70 71 71 70 70 70 71 70 70 70 70 69 69 69 70 70 70 70 70 70 70 71 71 71 72 73 73 73 73 73 73 73 73 73 73 74 74 75 75 76 77 78 78 79 80 81 83 84 86 88 90 91 92 93 93 93 93 92
72 73 74 75 76 76 77 78 78 78 78 77 76 75 74 73 72 71 71 70 69 69 68 68 67 68 67 67 68 69 69 68 69 69 69 68 69 69 69 68 68 69 69 69 69 69 69 70 70 70 70 71 71 72 72 72 72 72 72 72 72 72 72 72 72 73 73 74 74 75 76 77 77 78 80 81 83 85 87 89 91 93 94 94 94 94
72 74 75 75 76 76 77 77 77 77 76 74 73 72 71 70 69 68 68 67 66 66 66 65 65 65 65 66 66 67 68 68 68 68 68 68 68 69 69 68 68 69 69 69 69 69 70 70 70 70 70 71 71 72 72 72 72 72 72 72 71 71 71 71 71 71 71 71 72 72 73 74 75 75 77 78 79 81 83 85 88 91 93 94 95 95
73 74 75 75 76 76 75 75 74 73 72 71 70 69 68 67 66 65 65 65 64 64 64 64 64 64 65 65 66 67 68 68 68 68 68 68 68 69 69 69 69 69 70 70 70 69 70 70 71 70 70 71 71 72 72 72 72 72 72 71 71 71 71 70 70 70 70 70 70 70 71 71 72 73 74 75 76 77 79 81 84 87 90 92 94 96
73 74 74 74 74 74 73 72 70 69 68 67 66 65 65 64 63 63 63 63 63 63 63 63 63 63 64 65 65 67 68 69 69 69 69 69 70 70 71 70 70 70 71 71 71 70 70 70 71 71 70 71 71 71 71 71 71 71 71 71 71 70 70 70 70 69 69 69 69 69 69 69 70 70 71 72 73 74 76 77 79 82 85 88 91 94
73 73 73 72 71 70 69 68 67 66 65 64 63 62 62 61 61 61 61 61 62 62 62 62 62 63 64 65 65 67 69 70 71 71 71 71 71 72 72 72 71 71 72 72 72 71 70 70 71 71 71 70 71 71 71 71 71 71 70 70 70 69 69 69 68 68 67 67 67 67 67 67 67 68 69 69 70 71 73 74 76 78 80 83 86 90
71 71 70 69 68 67 66 65 64 63 62 62 61 60 60 60 60 60 60 61 61 61 61 62 62 63 64 65 66 68 69 71 72 73 73 72 72 73 74 74 73 73 73 73 72 71 70 70 71 71 70 70 70 70 70 70 70 69 69 69 68 68 67 67 66 66 65 65 65 65 65 65 65 66 66 67 67 68 69 71 72 74 76 78 81 84
69 68 67 66 65 64 63 62 61 60 59 59 59 58 58 58 58 59 60 60 61 61 62 62 63 64 65 66 67 69 70 72 74 74 74 74 74 75 75 75 75 74 74 73 73 72 71 70 70 70 70 69 69 68 68 68 68 67 67 67 66 66 65 65 64 64 63 63 63 63 63 63 64 64 64 64 64 65 66 67 68 70 72 74 76 79
66 65 64 63 61 60 59 59 58 57 57 57 57 57 57 57 58 58 60 60 60 61 62 63 64 65 66 67 68 70 71 73 75 76 76 75 75 76 76 76 76 76 75 73 73 72 71 69 68 68 67 67 66 66 65 65 65 65 64 64 63 63 63 62 62 61 61 61 61 61 61 62 62 62 62 62 62 63 63 64 65 66 68 69 71 73
63 61 60 59 58 57 56 56 55 55 55 56 56 56 57 57 58 58 59 60 61 62 63 64 65 66 67 68 69 71 73 75 76 77 76 76 77 77 77 76 76 76 74 72 71 70 69 67 65 64 64 63 63 62 62 62 62 61 61 61 60 60 60 59 59 59 59 59 59 59 60 60 60 60 61 61 61 61 61 62 62 63 64 65 67 68
58 57 56 56 55 54 54 54 54 54 54 55 55 56 57 57 58 59 60 60 61 62 64 65 66 67 68 69 70 72 74 76 77 78 78 77 77 78 77 75 74 74 73 70 67 66 65 64 62 60 59 59 58 58 58 57 57 57 57 56 56 56 56 56 56 56 56 57 57 57 58 58 59 59 59 60 60 60 61 61 61 62 62 63 63 64
54 54 53 53 52 52 52 53 53 53 54 54 55 56 57 58 58 59 60 61 62 63 64 66 67 68 69 70 72 73 75 77 78 79 78 77 77 76 75 72 71 70 69 67 64 62 60 59 58 56 54 53 53 53 53 52 52 52 51 51 51 51 52 52 52 53 53 54 54 55 55 56 57 58 58 59 59 60 60 61 61 61 62 62 62 63
51 51 51 51 51 51 52 52 52 53 53 54 55 56 57 58 59 60 61 62 63 64 65 66 68 69 70 72 73 74 76 77 78 78 77 75 74 73 71 69 67 65 64 62 60 58 55 54 52 51 50 49 48 47 47 47 46 46 46 46 46 47 47 48 48 49 50 51 52 52 53 54 55 56 57 58 59 60 60 61 61 62 62 62 62 63
49 50 50 50 50 51 51 51 52 53 53 54 55 56 57 58 59 60 61 62 64 65 66 67 68 70 71 72 74 75 76 76 77 76 75 72 70 68 66 64 61 60 58 56 54 52 50 49 47 46 45 44 43 42 41 41 41 41 41 42 42 43 44 45 46 47 48 49 50 51 52 53 54 55 56 57 58 59 60 61 62 63 63 63 63 63
48 49 49 49 50 50 51 51 52 52 53 54 55 56 57 58 59 60 61 62 63 65 66 67 68 70 71 72 73 74 74 74 74 72 70 68 65 63 60 58 56 54 52 50 48 46 45 44 42 41 39 39 38 38 37 37 38 38 39 40 41 42 43 44 45 46 47 47 48 49 50 51 53 54 55 56 58 59 60 61 62 63 64 64 64 64
47 48 48 48 49 49 50 51 51 52 53 54 55 56 57 58 59 60 61 62 63 64 66 67 69 70 71 72 72 72 72 71 69 68 65 62 60 57 54 52 50 48 46 45 43 41 39 38 37 36 35 35 34 35 35 35 36 37 38 39 40 41 42 43 43 44 45 46 47 48 49 51 52 54 55 56 58 59 60 61 62 63 64 65 65 66
46 46 47 47 48 48 49 50 51 52 53 54 55 55 56 57 58 59 60 62 63 64 66 68 69 71 72 72 71 70 68 66 64 62 60 57 54 51 49 47 45 43 41 39 38 36 35 34 33 33 32 32 33 33 34 34 35 36 37 38 39 39 40 41 42 43 44 45 46 48 49 51 53 54 56 57 58 60 60 61 62 63 64 65 65 66
45 45 46 46 47 48 49 50 51 51 52 53 54 55 56 57 58 59 60 61 63 64 66 68 69 70 71 70 69 67 64 62 59 57 54 52 49 46 44 42 40 38 36 35 34 33 32 31 31 31 31 31 31 32 32 33 34 34 35 36 37 38 39 40 41 42 43 44 46 47 48 49 50 52 53 54 56 58 59 60 61 62 63 64 64 65
44 44 45 46 46 47 48 49 50 51 52 53 53 54 55 56 57 59 60 61 63 65 66 68 69 69 69 68 65 63 60 57 54 52 50 47 45 42 40 37 35 34 33 32 31 31 31 30 30 30 30 30 30 30 30 31 32 34 35 35 36 37 39 40 41 41 42 42 42 42 42 43 43 44 45 47 49 51 53 55 58 59 61 62 63 63
43 44 44 45 46 47 48 48 49 50 51 52 53 53 54 56 57 59 60 62 63 65 66 67 68 68 66 64 62 59 56 53 50 48 46 43 41 38 36 34 32 31 30 30 30 29 29 29 29 28 28 28 28 28 29 31 32 34 35 36 37 37 38 39 39 39 39 39 38 38 38 39 39 40 41 42 43 44 46 48 51 53 56 58 60 61
43 43 44 45 46 46 47 48 49 50 50 51 52 53 54 55 57 59 60 62 63 65 66 66 66 66 64 61 58 55 52 50 47 45 42 40 37 35 33 31 30 29 29 28 28 28 27 27 27 27 27 28 28 29 30 32 34 36 37 37 37 37 37 37 37 37 37 37 38 38 39 40 41 42 42 43 43 43 43 43 44 46 49 52 55 57
42 43 44 45 45 46 47 48 48 49 49 50 51 52 53 55 56 58 60 61 63 64 64 64 64 63 61 59 56 53 50 47 44 42 39 37 34 32 31 30 29 28 27 26 26 25 25 25 26 27 28 29 31 32 33 34 36 37 38 38 38 37 36 36 36 37 38 39 40 41 42 43 43 43 44 44 44 44 43 42 42 42 43 45 48 51
42 43 43 44 45 46 47 47 48 48 48 49 50 52 53 55 56 58 59 60 61 62 63 62 62 60 58 56 53 50 48 45 42 39 37 34 32 30 29 28 27 26 25 24 24 24 25 26 27 29 31 32 33 35 35 36 37 37 38 38 38 37 36 35 36 37 39 40 42 43 44 44 44 44 44 44 44 44 43 43 41 40 39 39 41 44
41 42 43 44 45 45 46 46 46 47 48 49 50 52 53 55 56 57 59 60 60 61 61 61 60 58 56 53 50 48 45 43 40 37 35 32 30 28 26 25 24 24 24 24 24 25 26 28 30 32 34 35 36 37 37 37 37 37 38 38 38 37 36 36 36 37 39 41 42 44 45 45 45 44 43 43 42 43 43 42 41 40 39 38 37 38
41 42 43 44 44 45 45 45 45 46 47 48 50 52 53 55 56 57 58 59 60 60 59 59 58 56 54 51 48 46 43 40 38 35 33 30 28 26 25 24 24 24 25 25 27 28 29 31 33 34 36 37 38 38 38 38 38 38 38 38 38 37 37 37 37 38 39 41 42 44 45 45 45 44 43 42 41 41 41 41 41 40 39 38 37 36
41 42 42 43 43 43 44 44 44 45 47 49 50 52 54 55 56 57 58 58 58 59 58 58 56 54 52 50 47 44 40 38 35 33 31 28 27 25 25 25 25 26 27 28 29 30 32 33 35 36 37 38 38 39 39 39 39 39 38 38 38 38 38 38 38 38 39 40 42 43 44 44 44 44 43 42 41 40 40 40 40 40 40 39 38 36
40 41 42 42 42 43 43 43 44 45 47 49 51 52 54 55 56 56 57 57 57 57 57 56 55 53 51 48 45 42 38 35 33 31 29 28 27 26 26 27 28 29 30 31 32 32 33 34 35 37 38 38 39 39 39 40 41 41 41 40 40 40 39 39 38 39 39 40 40 41 42 42 43 42 42 42 41 40 40 39 39 39 39 39 39 37
40 41 41 41 42 42 42 43 44 45 47 49 51 52 54 54 55 55 56 56 56 56 56 55 53 52 50 47 44 40 37 34 31 30 29 28 28 28 29 30 31 32 32 33 33 33 34 35 36 37 38 39 40 40 40 41 42 42 43 43 42 42 41 40 39 39 39 39 39 39 40 40 41 41 41 41 41 40 39 39 39 39 39 39 39 38
39 40 40 41 41 41 42 43 44 45 47 49 51 52 53 54 54 54 55 55 55 55 54 53 52 50 48 45 43 40 37 34 31 29 28 28 28 29 29 31 32 32 33 34 34 34 34 35 36 37 38 39 40 41 41 41 42 43 44 44 44 44 43 41 40 39 39 39 38 38 39 40 40 41 41 41 41 40 39 39 38 39 39 39 40 39
39 39 40 40 40 41 41 43 44 46 48 49 51 52 53 53 54 54 54 54 54 53 53 52 50 48 46 44 41 39 36 33 32 30 29 29 29 29 30 31 32 33 33 34 34 34 35 35 36 37 38 39 40 41 42 42 43 43 44 44 45 44 43 42 40 39 39 39 39 39 39 40 41 41 42 41 41 40 39 38 38 38 39 40 40 40
38 39 39 39 40 41 42 43 44 46 48 49 50 51 52 52 53 53 53 52 53 52 52 51 49 47 45 42 40 37 35 33 32 30 30 29 29 30 30 31 33 34 34 34 35 35 35 35 35 36 37 38 40 41 42 43 43 44 44 44 44 44 43 41 40 39 39 39 40 40 41 42 42 42 42 42 41 40 38 37 37 38 39 40 40 40
Wind_Direction
282 282 281 281 281 281 281 280 280 280 280 280 280 280 280 280 280 280 280 280 280 281 281 281 281 281 281 281 281 281 281 281 281 281 281 281 281 280 280 280 280 280 280 280 279 279 279 279 279 279 279 278 278 278 278 278 277 277 277 276 276 275 275 274 274 273 272 271 270 268 267 266 266 265 265 264 264 264 264 264 264 265 264 264 263 262
281 281 281 281 280 281 281 280 280 280 280 280 280 280 280 281 281 281 281 281 281 282 282 282 282 282 282 282 282 282 282 282 282 282 282 281 281 281 281 281 280 280 280 280 280 280 280 279 279 279 279 279 279 279 278 278 278 277 277 276 276 275 275 274 273 272 272 271 269 268 267 266 265 264 263 263 263 262 262 262 263 263 263 263 263 262
281 281 280 280 280 280 280 280 280 280 280 281 281 281 281 281 282 282 282 282 283 283 283 283 283 283 283 283 283 283 283 283 282 282 282 282 282 281 281 281 281 281 280 280 280 280 280 280 280 280 279 279 279 279 279 278 278 278 277 277 276 276 275 274 273 272 271 270 269 268 267 265 264 263 262 262 261 261 261 261 261 261 262 262 262 262
281 281 281 281 281 281 280 280 281 281 281 281 282 282 282 282 283 283 283 283 284 284 284 284 284 284 284 284 284 284 283 283 283 283 282 282 282 282 282 281 281 281 281 281 281 280 280 280 280 280 279 279 279 279 279 278 278 278 277 277 276 276 275 274 274 273 272 271 270 268 267 266 264 263 262 261 260 260 260 259 259 259 260 260 260 261
282 282 282 282 282 282 282 282 282 282 283 283 283 283 283 284 284 284 284 284 284 284 284 284 284 284 284 284 284 284 284 283 283 283 283 283 282 282 282 282 282 282 281 281 281 281 280 280 280 280 279 279 279 278 278 278 278 277 277 277 276 276 275 275 274 273 272 271 270 269 268 267 265 264 263 261 260 260 259 258 258 258 258 258 258 259
283 283 283 284 284 284 284 284 284 284 284 284 284 284 284 284 284 284 285 285 285 285 284 284 284 284 284 284 284 284 284 284 283 283 283 283 283 283 282 282 282 282 282 281 281 281 281 280 280 280 279 279 279 278 278 278 277 277 277 276 276 275 275 274 274 273 273 272 271 270 269 268 267 265 264 262 261 260 259 258 257 257 256 256 256 257
285 285 285 285 285 285 285 285 285 285 285 285 285 285 285 285 285 285 285 285 285 285 285 284 284 284 284 284 284 284 284 284 284 283 283 283 283 283 283 283 282 282 282 282 282 281 281 281 280 280 280 279 279 278 278 278 277 277 276 276 275 275 274 274 274 273 273 272 271 270 270 269 268 266 265 264 262 261 260 259 258 257 256 256 255 255
286 286 286 286 286 286 286 286 286 286 286 286 286 286 286 286 286 286 285 285 285 285 285 285 285 284 284 284 284 284 284 284 284 284 284 284 284 283 283 283 283 283 282 282 282 282 281 281 281 280 280 280 279 279 278 278 277 277 276 276 275 275 274 274 273 273 272 272 271 270 270 269 268 267 266 265 264 262 261 260 258 257 256 256 255 255
287 287 287 287 287 287 287 287 287 287 287 287 287 287 286 286 286 286 286 286 286 286 286 285 285 285 285 285 285 285 285 284 284 284 284 284 284 284 284 284 283 283 283 283 282 282 281 281 281 280 280 279 279 279 278 278 278 277 277 276 276 275 274 274 273 272 272 271 271 270 270 269 268 268 267 266 265 263 262 261 260 258 257 256 256 255
288 288 288 288 287 287 287 287 288 288 288 287 287 287 287 287 287 287 287 287 287 287 287 286 286 286 286 286 286 285 285 285 285 285 285 285 285 284 284 284 284 284 283 283 282 282 282 281 281 280 280 279 279 278 278 278 277 277 276 276 275 275 274 274 273 272 272 271 270 270 269 269 268 268 267 266 265 264 263 262 261 260 259 257 256 256
288 288 288 288 288 288 288 288 288 288 288 288 288 288 288 287 288 288 288 288 288 287 287 287 287 287 287 287 286 286 286 286 286 286 285 285 285 285 285 285 284 284 284 284 283 283 282 282 281 281 280 279 279 278 278 277 277 276 276 275 275 274 274 273 273 272 272 271 270 270 269 268 268 267 267 266 266 265 264 263 262 261 260 259 257 256
288 288 289 289 289 289 289 289 289 289 289 289 288 288 288 288 288 288 288 288 288 288 288 288 288 288 288 287 287 287 287 286 286 286 286 286 286 286 285 285 285 285 285 284 284 284 283 283 282 281 281 280 279 279 278 277 276 276 275 275 274 273 273 272 272 272 271 271 270 270 269 268 268 267 266 266 265 265 264 263 262 261 260 259 258 257
289 289 289 289 289 289 289 289 289 289 289 289 289 289 289 289 289 289 289 289 289 289 289 289 289 288 288 288 288 288 287 287 287 287 287 287 287 287 286 286 286 286 286 285 285 285 284 284 283 282 282 281 280 279 279 278 277 276 275 274 274 273 272 271 271 270 270 269 269 269 268 268 267 267 266 265 265 264 264 263 262 262 261 260 259 258
289 289 289 289 289 289 289 289 289 289 289 290 290 290 290 290 290 290 290 290 289 289 289 289 289 289 289 289 289 288 288 288 288 288 288 288 288 288 287 287 287 287 286 286 286 285 285 284 284 283 283 282 281 280 279 279 278 277 276 275 274 273 272 271 270 269 269 268 268 267 267 266 266 266 265 265 264 264 263 263 262 261 261 260 259 258
289 289 290 289 289 289 290 290 290 290 290 290 290 290 290 290 290 290 290 290 290 290 290 290 290 290 290 290 290 289 289 289 289 289 289 289 289 289 288 288 288 288 287 287 287 286 286 285 285 284 284 283 282 281 280 279 278 278 277 275 274 273 272 271 270 269 268 267 267 266 265 265 264 264 264 263 263 263 262 262 261 261 260 260 259 258
290 290 290 290 290 290 290 290 290 291 291 291 291 291 291 291 291 291 291 291 291 291 291 291 291 291 291 291 291 291 290 290 290 290 290 290 290 290 289 289 289 289 288 288 288 287 286 286 286 285 284 284 283 282 281 280 279 278 277 276 275 274 273 271 270 269 268 267 266 265 264 263 263 262 262 262 261 261 261 261 260 260 260 259 259 258
290 290 290 290 291 291 291 291 291 291 291 291 292 292 292 292 292 292 292 292 292 292 292 292 292 292 292 292 292 291 291 291 291 291 291 291 290 290 290 290 290 289 289 289 288 288 287 287 286 286 285 284 284 283 282 281 280 279 278 277 276 275 273 272 271 269 268 267 266 265 263 262 262 261 260 260 259 259 259 259 259 258 258 258 258 257
290 290 291 291 291 291 291 292 292 292 292 292 292 292 292 292 292 292 292 292 293 293 293 293 293 293 293 293 292 292 292 292 292 291 291 291 291 291 291 291 290 290 290 290 289 289 288 288 287 287 286 285 284 284 283 282 281 280 279 278 276 275 274 273 271 270 269 267 266 265 263 262 261 260 259 258 257 257 257 256 256 256 256 256 256 256
291 291 291 291 292 292 292 292 292 292 292 292 293 293 293 293 293 293 293 293 294 294 294 294 294 293 293 293 293 292 292 292 292 292 292 291 291 291 291 291 291 290 290 290 290 289 289 289 288 288 287 286 285 284 283 282 281 280 279 278 277 276 275 274 272 271 269 268 266 265 264 262 261 260 258 257 256 256 255 254 254 254 254 254 254 254
291 291 292 292 292 292 292 292 292 293 293 293 293 293 294 294 294 294 294 294 294 294 294 294 294 294 294 294 293 293 293 293 293 292 292 292 292 291 291 291 291 291 291 290 290 290 289 289 289 288 287 287 286 285 284 283 282 281 280 279 278 277 276 275 273 272 271 269 268 266 265 263 262 260 259 257 256 255 254 253 253 252 252 252 252 252
292 292 292 292 292 292 293 293 293 293 293 293 294 294 294 294 295 295 295 295 295 295 294 295 294 294 294 294 294 293 293 294 293 293 293 293 292 292 292 292 292 291 291 291 290 290 290 289 289 288 288 287 287 286 285 284 283 282 281 280 279 278 277 276 275 273 272 271 269 268 266 264 263 261 260 258 257 255 254 253 252 251 250 250 250 249
292 292 292 293 293 293 293 293 293 294 294 294 295 295 295 295 295 295 295 295 295 295 295 295 295 295 295 295 295 295 295 295 294 294 294 294 293 293 293 293 293 292 292 291 291 291 290 290 289 289 288 287 287 286 286 285 284 283 282 281 281 279 278 277 276 275 274 272 271 269 268 266 265 263 261 259 258 256 255 253 252 251 250 249 248 248
292 292 293 293 293 293 294 294 294 294 295 295 295 295 295 295 295 295 295 295 295 296 296 296 296 296 296 296 296 296 296 296 296 295 295 295 295 294 294 294 293 293 292 292 291 291 291 290 289 289 288 288 287 286 286 285 285 284 283 283 282 281 280 279 278 277 276 274 273 271 270 268 266 265 263 261 259 257 256 254 253 251 250 249 248 247
293 293 293 293 294 294 294 295 295 295 295 295 295 295 295 295 296 296 296 296 296 297 297 297 298 298 298 298 298 298 297 297 297 297 296 296 296 295 295 295 294 294 293 292 292 292 291 290 290 289 288 288 287 286 286 285 285 285 284 283 283 282 281 280 279 278 277 276 275 273 271 270 268 266 265 263 261 259 257 255 254 252 250 249 248 247
293 293 294 294 294 295 295 295 295 296 296 296 296 296 296 296 296 297 297 297 298 298 299 299 300 300 299 299 299 299 298 298 298 298 297 297 297 296 296 295 295 294 293 293 292 292 291 291 290 289 289 288 287 287 286 286 285 285 284 284 283 283 282 281 280 279 278 277 276 274 273 271 270 268 266 264 263 261 259 257 255 253 252 250 249 247
294 294 295 295 295 295 296 296 296 296 296 296 296 296 297 297 298 298 299 299 300 301 301 301 301 301 301 301 301 300 299 299 299 299 298 298 298 297 296 296 295 295 294 293 293 293 292 291 290 290 289 288 287 287 286 286 285 284 284 284 283 283 282 281 280 280 278 277 276 275 274 272 271 269 268 266 264 263 261 259 257 255 253 251 250 248
295 295 295 296 296 296 296 296 296 297 297 297 298 298 299 300 300 301 301 302 302 302 303 303 302 302 302 302 301 301 300 300 300 299 299 299 299 298 297 297 296 295 294 294 293 293 292 292 291 290 289 288 287 287 286 285 285 284 284 283 283 282 282 281 280 279 278 277 276 275 274 272 271 270 269 267 266 264 262 261 259 257 256 254 252 250
296 296 296 296 296 297 297 297 298 298 299 299 300 301 301 302 303 303 303 303 304 304 304 304 303 303 303 303 302 302 301 301 300 300 300 300 299 298 297 297 297 296 295 295 294 294 293 292 291 290 289 288 287 286 286 285 284 284 283 283 282 282 281 280 279 278 277 276 275 274 273 272 271 270 269 268 267 265 264 262 261 259 257 256 254 252
296 297 297 297 297 298 298 299 299 300 301 302 302 303 304 304 305 305 304 305 305 305 305 304 304 304 304 303 303 302 302 301 300 300 300 300 300 299 298 298 297 297 296 295 295 294 293 292 291 290 289 288 287 286 285 285 284 284 283 282 282 281 280 279 278 277 276 275 274 274 273 272 271 270 269 268 267 266 265 263 262 260 259 257 256 254
297 298 298 299 299 300 300 301 302 302 303 304 304 305 305 306 306 306 306 306 306 306 306 305 305 305 304 304 304 303 302 302 301 301 301 301 300 299 299 299 298 297 296 295 295 294 293 292 290 289 288 287 287 286 285 284 284 284 283 282 282 281 280 279 278 277 276 275 274 273 273 272 271 270 270 269 268 267 266 264 263 261 260 258 257 255
299 299 300 300 301 301 302 303 304 304 305 306 306 307 307 307 307 307 307 307 307 307 307 306 306 306 305 305 304 304 303 302 302 301 301 301 300 300 299 299 298 297 296 295 295 293 292 291 290 289 288 288 287 286 285 285 284 284 283 283 282 281 280 279 278 277 276 275 274 274 273 272 271 271 270 269 269 268 267 265 264 263 261 260 258 256
300 301 301 302 302 303 304 305 305 306 307 307 308 308 308 308 308 308 308 308 308 308 308 307 307 307 306 306 305 305 304 303 303 302 302 302 301 300 300 299 298 297 296 296 295 294 292 291 290 290 289 288 287 287 286 286 285 284 284 283 282 281 281 280 279 278 277 276 276 275 274 273 272 272 271 270 269 269 268 266 265 264 262 261 259 257
301 302 303 303 304 305 306 306 307 308 308 309 309 309 309 309 309 309 309 309 309 309 309 308 308 308 308 307 307 306 305 305 304 303 303 303 302 301 300 299 298 297 296 296 295 295 294 292 291 290 290 289 288 287 287 286 286 285 284 284 283 282 282 281 281 280 279 279 278 277 276 275 274 273 272 271 270 269 269 267 266 265 263 262 260 258
303 303 304 305 306 306 307 308 308 309 309 310 310 310 310 310 310 310 310 310 310 310 310 310 310 309 309 309 309 308 307 306 305 305 304 303 302 301 301 300 299 298 297 297 296 296 295 294 293 292 291 290 289 288 287 286 286 285 285 284 284 284 283 283 283 283 282 282 281 280 280 278 277 276 275 274 272 271 270 268 267 266 264 263 261 259
304 305 306 306 307 308 308 309 309 310 310 310 311 311 311 311 311 311 311 311 311 311 311 311 311 311 311 311 311 310 309 308 307 306 305 304 303 302 301 300 299 299 298 298 297 297 297 296 295 293 292 290 289 288 287 286 286 286 286 285 285 285 285 285 286 286 286 285 285 284 283 282 281 279 278 276 275 273 272 270 269 267 266 264 262 260
305 306 306 307 308 309 309 310 310 311 311 311 311 312 312 312 312 312 312 312 312 313 313 313 313 314 314 313 313 312 310 309 308 307 306 305 304 303 303 301 301 300 300 299 299 298 298 297 296 294 293 291 290 289 288 288 288 287 287 287 287 287 288 288 289 289 289 289 289 288 287 285 284 282 281 279 278 276 275 273 271 270 268 266 264 261
306 306 307 308 309 310 310 311 311 311 312 312 312 312 313 313 313 313 313 314 314 315 315 315 316 316 316 316 315 314 312 311 310 308 307 307 306 305 304 303 303 302 302 301 300 299 298 297 296 295 294 293 291 290 290 290 289 289 289 289 290 290 291 292 292 293 292 292 291 290 289 288 287 286 284 283 282 280 278 277 275 273 271 269 266 264
306 307 308 309 310 311 311 311 312 312 313 313 313 313 314 314 314 315 315 315 316 317 317 318 319 319 319 318 317 316 314 313 311 310 309 308 308 307 306 306 305 304 303 303 301 300 299 298 297 296 295 294 293 292 292 292 291 291 291 292 293 293 294 295 295 294 294 293 292 291 291 291 291 290 289 288 286 284 282 280 277 275 273 271 269 267
307 308 309 310 311 311 312 312 312 313 313 314 314 314 315 315 316 316 317 317 318 319 320 321 321 322 321 321 320 318 316 315 314 312 311 311 310 309 309 308 307 306 305 304 303 302 301 300 299 298 297 296 295 295 295 294 294 294 294 295 296 296 297 297 296 296 295 294 294 295 296 297 298 298 297 296 294 290 287 283 280 277 275 272 270 268
309 310 311 311 312 312 312 313 313 313 314 314 315 315 316 317 318 318 319 319 320 321 322 323 324 324 324 323 322 320 319 317 316 315 314 313 312 312 311 310 309 308 307 306 305 304 303 303 302 301 301 300 299 299 298 298 298 297 298 298 298 298 299 298 298 297 297 298 299 301 303 305 306 307 307 306 304 300 296 290 285 280 277 273 271 269
311 311 312 312 313 313 313 313 314 314 315 315 316 317 318 319 320 320 321 322 322 323 325 326 327 327 327 326 324 323 321 320 318 317 316 315 314 314 313 312 311 310 309 309 308 307 307 307 306 306 305 304 303 303 302 302 301 301 301 301 300 300 300 299 299 299 300 302 304 305 307 309 310 312 312 313 312 310 306 301 294 288 281 276 272 269
312 313 313 313 314 314 314 314 314 315 316 316 317 319 320 321 321 322 323 324 325 326 328 329 330 330 330 328 327 325 324 322 320 319 318 317 316 316 315 315 314 313 313 312 312 312 311 311 310 309 308 308 307 306 306 305 304 304 303 303 302 301 301 300 300 300 301 303 305 307 308 309 310 312 313 314 314 314 313 311 306 299 291 284 277 272
313 313 314 314 314 314 315 315 315 316 317 318 319 320 321 322 323 324 325 326 327 329 330 332 333 333 333 331 329 328 326 324 322 321 319 318 318 318 318 318 317 317 317 316 316 316 315 314 313 312 311 310 309 309 308 307 307 306 305 304 303 302 301 300 300 300 300 301 303 304 306 307 308 310 311 312 313 314 315 315 314 310 304 296 287 279
314 314 314 315 315 315 315 316 317 318 319 320 321 322 323 324 325 325 326 328 329 330 332 334 335 336 335 334 332 330 327 325 324 322 321 320 320 320 321 321 321 321 320 320 319 318 317 316 315 314 313 312 311 311 310 309 308 307 306 305 304 303 302 301 300 299 299 300 301 302 303 305 307 308 309 309 310 311 313 315 316 315 313 308 301 292
315 315 315 315 315 316 316 317 318 319 320 321 322 323 324 325 326 327 328 329 330 332 333 335 337 338 338 337 335 332 329 327 325 324 323 323 323 324 324 324 324 323 322 321 321 320 319 318 317 315 314 313 312 312 312 311 311 310 309 308 307 306 305 304 302 301 300 300 301 302 303 305 306 307 308 308 308 309 310 312 313 315 315 315 312 306
316 315 316 316 316 317 317 318 319 320 322 323 324 325 326 327 328 328 330 331 332 333 334 336 337 339 340 339 337 334 331 328 326 325 325 325 326 327 327 326 326 325 323 322 321 321 320 319 318 316 315 314 314 314 314 314 313 313 312 311 310 309 307 306 304 303 302 302 303 303 304 306 306 307 307 307 307 307 308 309 310 311 313 314 315 313
316 316 316 317 317 318 319 319 321 322 323 324 325 326 327 328 329 330 331 332 333 334 335 336 337 339 340 340 339 336 333 329 327 326 326 327 327 328 328 327 327 325 324 323 322 321 321 320 319 317 316 316 316 316 316 316 316 315 315 314 313 311 310 309 307 306 305 304 305 305 306 306 306 306 305 305 305 306 306 306 307 308 309 310 311 313
317 317 317 318 318 319 320 321 322 323 324 325 326 327 328 328 329 330 331 332 333 334 335 336 337 338 340 340 339 338 335 331 328 327 327 327 327 328 328 327 327 326 325 323 322 321 321 320 320 319 318 317 317 318 318 318 317 316 315 315 314 313 312 311 310 308 307 307 307 307 307 306 306 305 304 303 303 304 304 305 305 305 305 305 306 308
318 318 319 319 320 321 321 322 323 324 325 326 327 328 328 329 330 331 332 333 334 334 335 335 336 337 338 339 339 338 336 333 330 328 327 327 327 327 327 327 326 325 324 323 322 321 320 320 320 319 319 318 318 319 319 318 317 316 315 314 313 313 313 312 311 310 309 309 309 308 308 307 305 304 302 301 301 301 302 302 302 302 302 301 302 303
319 320 320 321 322 322 323 323 324 325 326 327 327 328 328 329 330 331 332 333 334 334 335 334 334 335 336 337 337 337 335 333 331 328 327 327 327 326 326 325 324 323 322 321 320 320 319 319 319 319 319 318 318 318 318 318 316 315 314 313 313 312 312 312 312 311 311 310 310 309 308 307 306 304 302 300 299 299 299 300 300 300 299 299 299 299
321 322 322 323 323 323 324 324 325 326 326 327 328 328 329 329 330 331 332 333 334 334 334 334 333 333 333 334 335 335 334 333 331 328 327 326 326 325 325 324 322 321 320 319 318 317 317 317 317 318 318 317 318 318 317 317 315 314 313 313 313 313 312 312 312 312 311 311 310 309 308 307 306 304 302 300 299 298 297 297 297 297 297 296 296 296
Height
5680 5678 5678 5678 5677 5675 5673 5672 5672 5671 5669 5668 5667 5666 5664 5662 5660 5658 5657 5656 5654 5653 5651 5650 5648 5647 5646 5644 5643 5642 5640 5638 5636 5634 5633 5631 5629 5628 5626 5625 5623 5622 5621 5619 5618 5617 5616 5615 5614 5613 5612 5611 5611 5610 5609 5609 5608 5608 5608 5607 5607 5607 5607 5607 5607 5608 5608 5608 5608 5609 5609 5610 5611 5612 5613 5615 5616 5617 5618 5619 5620 5621 5622 5623 5624 5625
5676 5674 5673 5673 5673 5671 5669 5667 5667 5666 5665 5662 5661 5660 5659 5657 5654 5652 5651 5650 5648 5647 5645 5643 5642 5640 5638 5637 5635 5634 5633 5630 5628 5626 5625 5623 5621 5620 5618 5617 5616 5614 5613 5612 5611 5610 5609 5608 5607 5606 5605 5604 5604 5603 5603 5602 5602 5601 5601 5600 5600 5600 5600 5600 5600 5600 5600 5601 5601 5602 5602 5603 5603 5604 5605 5607 5608 5609 5610 5612 5613 5614 5615 5616 5617 5618
5671 5670 5668 5668 5668 5667 5664 5662 5661 5661 5660 5658 5655 5653 5653 5651 5649 5646 5644 5643 5642 5640 5638 5637 5635 5633 5631 5629 5628 5626 5625 5623 5620 5618 5617 5615 5613 5612 5611 5609 5608 5607 5606 5605 5604 5603 5602 5601 5600 5600 5599 5598 5598 5597 5596 5595 5595 5594 5594 5593 5593 5593 5593 5593 5593 5593 5593 5593 5593 5594 5594 5595 5596 5596 5597 5598 5600 5601 5603 5604 5606 5607 5608 5609 5610 5611
5666 5665 5663 5662 5662 5661 5659 5657 5655 5654 5653 5652 5650 5648 5646 5644 5643 5640 5638 5637 5636 5633 5631 5629 5628 5626 5623 5621 5619 5618 5617 5615 5613 5611 5609 5608 5606 5605 5603 5603 5602 5600 5599 5598 5598 5597 5596 5595 5594 5593 5593 5592 5591 5590 5590 5589 5589 5588 5588 5587 5587 5587 5586 5586 5586 5586 5586 5586 5587 5587 5587 5588 5588 5589 5590 5591 5592 5593 5595 5597 5598 5600 5601 5602 5603 5604
5660 5660 5658 5656 5656 5655 5653 5651 5650 5648 5647 5645 5643 5642 5640 5638 5636 5634 5632 5630 5629 5627 5624 5622 5621 5619 5617 5614 5612 5610 5609 5608 5606 5604 5602 5601 5599 5598 5597 5596 5595 5594 5593 5592 5591 5590 5589 5588 5588 5587 5586 5585 5585 5584 5583 5583 5582 5582 5581 5581 5580 5580 5580 5580 5579 5579 5579 5580 5580 5580 5580 5581 5581 5582 5583 5583 5585 5586 5587 5589 5590 5592 5593 5594 5596 5597
5654 5653 5652 5651 5649 5648 5646 5644 5643 5642 5640 5638 5637 5635 5633 5631 5629 5627 5625 5623 5622 5620 5618 5616 5614 5612 5610 5608 5606 5604 5603 5601 5599 5598 5596 5594 5593 5592 5590 5589 5588 5588 5587 5585 5584 5583 5583 5582 5581 5580 5579 5578 5578 5577 5577 5576 5576 5575 5575 5574 5574 5574 5573 5573 5573 5573 5573 5573 5573 5573 5573 5574 5574 5575 5576 5577 5578 5579 5580 5581 5583 5584 5585 5587 5588 5589
5648 5647 5646 5645 5643 5641 5639 5638 5636 5635 5634 5632 5630 5627 5626 5624 5622 5620 5618 5616 5615 5613 5611 5609 5607 5606 5604 5602 5600 5598 5596 5595 5593 5591 5590 5588 5586 5585 5584 5583 5582 5581 5580 5578 5578 5577 5576 5574 5573 5573 5572 5571 5571 5570 5569 5569 5568 5568 5568 5568 5567 5567 5567 5567 5567 5566 5566 5567 5567 5567 5567 5567 5568 5568 5569 5570 5571 5572 5573 5574 5575 5576 5578 5579 5580 5582
5643 5641 5639 5639 5638 5635 5633 5631 5629 5628 5627 5625 5623 5620 5619 5617 5615 5613 5611 5610 5608 5606 5604 5603 5601 5599 5598 5596 5594 5592 5590 5588 5587 5585 5583 5581 5580 5578 5577 5576 5574 5573 5572 5571 5570 5569 5568 5567 5566 5565 5564 5564 5563 5563 5562 5562 5561 5561 5560 5560 5560 5560 5560 5560 5560 5560 5560 5560 5560 5560 5560 5561 5561 5562 5562 5563 5564 5565 5566 5567 5568 5569 5570 5572 5573 5574
5637 5635 5633 5632 5631 5630 5627 5623 5621 5620 5620 5619 5616 5613 5612 5611 5608 5606 5604 5603 5601 5599 5598 5597 5594 5592 5591 5589 5588 5586 5584 5582 5580 5578 5577 5575 5573 5571 5570 5568 5567 5566 5565 5563 5563 5562 5560 5559 5558 5558 5557 5556 5556 5555 5555 5554 5553 5553 5553 5552 5552 5552 5552 5552 5553 5553 5553 5553 5553 5553 5554 5554 5554 5555 5555 5556 5557 5558 5559 5560 5561 5562 5563 5564 5566 5567
5631 5630 5627 5625 5623 5622 5621 5618 5614 5612 5613 5612 5609 5606 5605 5604 5602 5600 5598 5596 5595 5593 5591 5590 5588 5586 5584 5582 5580 5579 5577 5575 5573 5571 5570 5568 5566 5564 5562 5561 5559 5558 5557 5556 5554 5553 5552 5551 5550 5550 5549 5548 5548 5547 5547 5546 5545 5545 5545 5544 5544 5544 5544 5544 5544 5545 5545 5545 5546 5546 5547 5547 5548 5548 5548 5549 5550 5551 5552 5553 5554 5555 5556 5557 5558 5560
5625 5623 5622 5619 5616 5614 5614 5612 5609 5606 5605 5605 5603 5600 5598 5597 5596 5594 5592 5589 5588 5587 5585 5583 5581 5579 5578 5575 5573 5571 5570 5568 5565 5563 5562 5561 5559 5557 5555 5553 5551 5550 5548 5547 5546 5544 5543 5543 5542 5541 5540 5540 5539 5539 5538 5538 5537 5537 5536 5536 5536 5536 5536 5536 5536 5536 5536 5537 5538 5538 5539 5539 5540 5541 5541 5542 5543 5543 5544 5545 5547 5548 5548 5550 5551 5552
5618 5617 5615 5613 5610 5608 5607 5605 5603 5601 5599 5598 5597 5594 5592 5590 5590 5589 5586 5583 5581 5580 5579 5576 5574 5572 5571 5568 5565 5563 5562 5560 5558 5556 5554 5553 5551 5548 5547 5545 5543 5541 5540 5538 5537 5535 5534 5533 5532 5531 5531 5530 5530 5529 5528 5528 5528 5528 5527 5527 5527 5527 5527 5527 5527 5527 5528 5528 5529 5529 5530 5531 5532 5533 5533 5534 5535 5536 5537 5538 5539 5540 5541 5542 5543 5545
5613 5611 5609 5607 5605 5603 5601 5599 5597 5595 5594 5593 5591 5588 5586 5584 5583 5582 5580 5577 5575 5573 5572 5570 5567 5564 5563 5561 5558 5556 5554 5552 5551 5549 5547 5545 5542 5540 5538 5537 5535 5533 5531 5530 5528 5525 5524 5523 5522 5521 5520 5520 5519 5519 5518 5518 5518 5518 5518 5518 5518 5517 5517 5517 5518 5518 5518 5519 5519 5520 5521 5522 5523 5524 5525 5526 5527 5528 5529 5530 5531 5532 5533 5535 5536 5537
5607 5605 5603 5601 5599 5597 5596 5594 5592 5590 5588 5586 5585 5583 5581 5578 5576 5575 5573 5571 5568 5566 5565 5563 5561 5558 5555 5553 5550 5548 5546 5544 5543 5541 5539 5537 5534 5531 5530 5528 5526 5524 5523 5521 5519 5516 5514 5514 5513 5511 5510 5509 5509 5508 5508 5508 5508 5508 5507 5508 5508 5507 5507 5508 5508 5508 5508 5509 5510 5510 5511 5512 5513 5515 5516 5517 5518 5519 5520 5522 5523 5524 5525 5527 5528 5529
5602 5600 5598 5596 5594 5592 5590 5589 5587 5584 5582 5581 5579 5578 5575 5572 5570 5568 5567 5564 5561 5559 5558 5556 5553 5550 5548 5545 5542 5540 5538 5536 5535 5533 5532 5529 5525 5523 5521 5520 5518 5515 5514 5513 5511 5508 5505 5505 5504 5502 5500 5500 5499 5498 5497 5497 5497 5497 5497 5497 5497 5497 5497 5497 5498 5498 5498 5499 5499 5500 5501 5502 5503 5505 5506 5507 5508 5510 5511 5513 5514 5515 5517 5518 5520 5521
5597 5595 5593 5591 5588 5587 5585 5583 5581 5579 5577 5575 5573 5571 5569 5566 5563 5562 5560 5557 5555 5552 5550 5548 5546 5543 5540 5537 5534 5531 5529 5528 5526 5525 5525 5522 5518 5514 5513 5512 5510 5508 5505 5504 5502 5499 5497 5496 5495 5493 5492 5490 5489 5488 5488 5487 5487 5487 5487 5487 5487 5487 5487 5487 5487 5488 5488 5488 5489 5490 5491 5492 5493 5494 5495 5497 5498 5500 5501 5503 5505 5506 5508 5509 5511 5513
5592 5590 5588 5586 5583 5581 5579 5578 5576 5573 5571 5569 5567 5565 5563 5560 5557 5555 5553 5550 5548 5545 5543 5541 5539 5536 5533 5530 5526 5523 5522 5521 5519 5517 5517 5515 5511 5507 5505 5505 5503 5500 5498 5496 5494 5491 5489 5488 5487 5485 5483 5482 5480 5479 5478 5478 5477 5477 5477 5476 5476 5476 5477 5477 5477 5477 5478 5478 5479 5479 5480 5481 5482 5483 5485 5486 5488 5489 5491 5493 5494 5496 5498 5500 5502 5503
5586 5584 5583 5580 5578 5576 5574 5572 5570 5568 5566 5563 5561 5559 5556 5553 5551 5548 5546 5543 5540 5538 5536 5533 5531 5529 5527 5523 5519 5515 5513 5514 5512 5510 5509 5508 5505 5501 5498 5498 5496 5494 5491 5489 5487 5484 5481 5480 5478 5477 5475 5473 5472 5470 5469 5468 5468 5467 5467 5467 5466 5466 5466 5466 5467 5467 5467 5468 5468 5469 5469 5470 5471 5472 5473 5475 5476 5478 5480 5482 5483 5486 5488 5490 5492 5494
5581 5579 5578 5575 5573 5571 5569 5566 5564 5562 5560 5558 5555 5553 5550 5547 5544 5542 5539 5536 5533 5531 5529 5526 5524 5521 5519 5517 5513 5509 5506 5507 5506 5503 5502 5502 5499 5496 5492 5491 5490 5488 5485 5483 5480 5478 5475 5473 5471 5469 5467 5465 5463 5462 5461 5460 5459 5458 5458 5457 5457 5457 5456 5456 5456 5457 5457 5457 5458 5458 5459 5460 5461 5462 5463 5463 5465 5466 5468 5470 5473 5474 5477 5479 5481 5483
5576 5574 5572 5570 5568 5566 5563 5561 5558 5556 5554 5551 5549 5547 5544 5541 5538 5535 5532 5529 5527 5524 5522 5520 5518 5515 5512 5510 5507 5503 5500 5500 5499 5497 5495 5495 5493 5490 5486 5485 5484 5482 5478 5477 5474 5471 5469 5467 5464 5462 5460 5457 5455 5453 5452 5451 5450 5449 5449 5448 5448 5448 5447 5447 5447 5447 5447 5447 5448 5448 5449 5449 5450 5451 5452 5453 5454 5455 5457 5459 5461 5463 5465 5467 5469 5472
5571 5568 5567 5565 5563 5560 5557 5555 5552 5550 5548 5545 5543 5540 5538 5535 5532 5529 5526 5523 5521 5519 5516 5514 5512 5509 5506 5504 5501 5497 5494 5493 5493 5491 5489 5489 5487 5484 5481 5479 5478 5476 5473 5470 5468 5465 5463 5461 5458 5455 5453 5450 5448 5445 5443 5442 5442 5441 5440 5440 5439 5439 5438 5438 5438 5437 5437 5438 5438 5438 5439 5439 5440 5441 5442 5443 5444 5445 5446 5448 5449 5452 5454 5456 5458 5460
5566 5563 5561 5559 5557 5555 5552 5549 5546 5544 5541 5539 5537 5534 5531 5529 5526 5523 5520 5518 5516 5513 5511 5509 5506 5503 5501 5498 5495 5491 5488 5487 5486 5484 5483 5482 5481 5478 5474 5473 5472 5469 5466 5464 5461 5459 5456 5454 5452 5449 5446 5443 5441 5438 5436 5434 5433 5432 5432 5431 5431 5430 5430 5429 5429 5428 5428 5428 5428 5429 5429 5430 5430 5431 5432 5433 5433 5435 5436 5437 5439 5441 5442 5444 5446 5449
5561 5558 5556 5553 5551 5549 5546 5543 5541 5538 5535 5533 5531 5528 5525 5523 5521 5518 5515 5513 5511 5508 5506 5504 5501 5498 5495 5493 5490 5486 5482 5480 5479 5478 5476 5476 5474 5471 5468 5466 5465 5463 5460 5457 5455 5453 5450 5447 5445 5443 5440 5437 5434 5431 5429 5427 5426 5424 5423 5423 5423 5422 5421 5421 5420 5420 5420 5420 5420 5420 5420 5420 5421 5421 5422 5423 5423 5424 5425 5427 5428 5429 5431 5433 5435 5438
5556 5553 5550 5548 5545 5543 5540 5538 5535 5532 5530 5528 5525 5523 5520 5518 5515 5513 5510 5508 5505 5503 5501 5499 5496 5493 5490 5488 5485 5481 5477 5473 5472 5471 5470 5468 5467 5465 5462 5460 5458 5456 5453 5450 5448 5447 5444 5441 5438 5435 5433 5430 5427 5424 5422 5420 5418 5417 5416 5415 5414 5414 5413 5413 5412 5412 5412 5411 5411 5411 5411 5411 5412 5412 5412 5413 5413 5414 5415 5416 5417 5418 5420 5422 5423 5426
5550 5548 5545 5542 5540 5537 5535 5532 5529 5527 5524 5522 5520 5517 5515 5512 5510 5507 5505 5503 5500 5498 5496 5494 5492 5488 5485 5482 5480 5476 5471 5467 5465 5464 5463 5462 5460 5458 5455 5453 5451 5450 5446 5443 5441 5439 5438 5434 5430 5427 5425 5423 5420 5417 5414 5413 5411 5410 5408 5407 5407 5406 5405 5404 5404 5403 5403 5403 5403 5403 5403 5403 5403 5403 5403 5403 5403 5404 5405 5405 5406 5408 5409 5410 5412 5414
5544 5542 5539 5537 5534 5532 5529 5527 5524 5522 5519 5517 5515 5512 5510 5508 5505 5503 5500 5498 5495 5493 5491 5488 5486 5483 5480 5477 5474 5470 5465 5461 5458 5457 5457 5455 5453 5450 5447 5445 5444 5443 5439 5436 5433 5432 5431 5428 5423 5420 5417 5415 5413 5410 5407 5406 5404 5402 5401 5400 5399 5398 5397 5397 5396 5395 5395 5395 5394 5394 5394 5394 5394 5394 5394 5394 5395 5395 5396 5396 5397 5398 5399 5400 5402 5404
5539 5537 5534 5532 5529 5527 5524 5522 5519 5517 5514 5512 5509 5507 5505 5503 5501 5498 5495 5493 5491 5488 5486 5483 5480 5477 5474 5472 5468 5465 5460 5455 5452 5449 5449 5448 5447 5443 5439 5437 5436 5435 5432 5429 5426 5424 5423 5420 5416 5413 5410 5408 5405 5403 5400 5398 5396 5395 5394 5393 5392 5391 5390 5389 5388 5388 5387 5387 5386 5386 5386 5386 5386 5386 5386 5386 5386 5387 5387 5388 5388 5389 5390 5391 5393 5395
5533 5531 5529 5527 5524 5522 5519 5517 5514 5512 5509 5507 5504 5502 5500 5498 5496 5493 5490 5488 5486 5483 5480 5477 5475 5472 5469 5466 5463 5459 5455 5450 5446 5443 5442 5442 5440 5436 5432 5429 5428 5426 5423 5421 5419 5417 5415 5412 5409 5405 5403 5400 5398 5395 5393 5391 5389 5388 5387 5386 5384 5383 5383 5382 5381 5380 5380 5379 5378 5378 5378 5378 5378 5378 5378 5378 5378 5379 5379 5379 5380 5380 5381 5383 5384 5386
5528 5526 5523 5521 5519 5517 5514 5512 5509 5507 5504 5502 5500 5497 5495 5493 5492 5489 5486 5483 5481 5478 5475 5472 5469 5467 5464 5460 5457 5453 5449 5444 5439 5437 5435 5435 5432 5428 5425 5423 5420 5417 5414 5413 5412 5410 5407 5404 5401 5398 5396 5393 5390 5388 5386 5384 5382 5381 5380 5379 5378 5376 5375 5374 5373 5373 5373 5372 5371 5371 5371 5371 5371 5371 5371 5371 5371 5371 5372 5372 5372 5373 5373 5375 5376 5378
5523 5521 5518 5516 5514 5512 5509 5507 5505 5502 5500 5498 5495 5493 5491 5488 5487 5484 5481 5478 5476 5473 5470 5467 5463 5461 5458 5455 5452 5448 5443 5438 5433 5431 5430 5428 5424 5420 5417 5416 5412 5408 5405 5405 5404 5402 5400 5397 5393 5391 5388 5386 5384 5381 5379 5377 5376 5374 5373 5372 5371 5370 5368 5368 5367 5366 5366 5365 5365 5364 5364 5364 5364 5364 5364 5364 5364 5364 5364 5365 5365 5365 5366 5367 5368 5370
5518 5516 5514 5511 5509 5507 5505 5503 5501 5498 5496 5493 5491 5489 5486 5484 5481 5479 5476 5473 5471 5468 5465 5461 5458 5455 5452 5449 5446 5442 5437 5431 5426 5424 5423 5421 5418 5413 5410 5408 5405 5400 5397 5396 5396 5395 5393 5390 5387 5384 5382 5380 5378 5375 5373 5372 5370 5368 5367 5366 5365 5363 5362 5361 5361 5360 5359 5359 5359 5358 5358 5358 5358 5358 5357 5357 5358 5358 5358 5358 5358 5358 5359 5360 5361 5362
5514 5512 5510 5508 5505 5503 5501 5499 5497 5494 5492 5489 5487 5484 5482 5479 5477 5474 5471 5468 5465 5463 5460 5456 5453 5449 5446 5443 5440 5436 5431 5425 5420 5417 5415 5414 5410 5406 5403 5401 5398 5393 5389 5388 5387 5387 5386 5384 5381 5378 5377 5375 5373 5370 5368 5366 5365 5363 5362 5361 5360 5358 5357 5356 5355 5354 5354 5353 5353 5353 5352 5352 5352 5351 5351 5351 5351 5351 5351 5351 5351 5351 5352 5353 5354 5355
5510 5508 5506 5504 5502 5499 5497 5495 5493 5491 5488 5486 5483 5481 5478 5475 5472 5469 5466 5463 5460 5457 5454 5451 5447 5443 5440 5436 5433 5429 5424 5419 5414 5410 5408 5406 5403 5399 5395 5393 5390 5387 5384 5382 5380 5379 5378 5378 5376 5374 5372 5370 5368 5366 5364 5362 5360 5359 5358 5357 5355 5354 5352 5351 5350 5349 5349 5348 5348 5348 5347 5346 5346 5345 5345 5345 5344 5344 5344 5343 5343 5344 5344 5345 5346 5347
5507 5505 5503 5500 5498 5496 5494 5492 5489 5487 5485 5482 5479 5477 5474 5471 5468 5465 5462 5458 5455 5452 5449 5446 5442 5438 5434 5430 5426 5422 5417 5412 5408 5403 5401 5398 5396 5393 5389 5387 5384 5381 5379 5377 5375 5373 5372 5371 5370 5369 5368 5366 5364 5363 5361 5359 5357 5356 5354 5353 5352 5350 5348 5347 5346 5345 5344 5344 5343 5342 5341 5341 5340 5339 5339 5338 5338 5337 5337 5337 5336 5336 5337 5338 5338 5339
5504 5501 5499 5497 5495 5493 5490 5488 5486 5483 5481 5478 5476 5473 5470 5467 5464 5461 5457 5454 5450 5447 5443 5440 5436 5433 5429 5425 5420 5416 5411 5405 5401 5397 5394 5391 5389 5386 5383 5381 5378 5376 5374 5372 5371 5369 5368 5366 5365 5364 5364 5362 5361 5359 5358 5356 5354 5353 5351 5350 5348 5347 5345 5344 5343 5342 5341 5340 5339 5338 5336 5335 5334 5333 5333 5332 5331 5330 5330 5330 5329 5329 5329 5329 5330 5331
5501 5498 5496 5494 5492 5490 5487 5485 5482 5480 5477 5474 5472 5469 5466 5463 5459 5456 5453 5449 5446 5442 5438 5434 5430 5426 5423 5419 5415 5410 5405 5400 5395 5391 5388 5385 5383 5381 5379 5376 5373 5372 5371 5368 5367 5366 5365 5363 5362 5361 5360 5359 5358 5356 5355 5353 5352 5350 5348 5347 5345 5344 5342 5341 5340 5338 5337 5336 5335 5333 5331 5330 5329 5328 5327 5326 5325 5324 5323 5323 5323 5322 5322 5322 5322 5323
5498 5496 5494 5492 5489 5487 5484 5482 5479 5476 5473 5471 5468 5465 5462 5459 5455 5452 5448 5445 5441 5438 5433 5429 5425 5420 5416 5412 5408 5404 5400 5395 5390 5386 5383 5380 5378 5377 5375 5372 5370 5368 5367 5365 5364 5363 5362 5361 5359 5358 5357 5356 5355 5353 5352 5351 5349 5348 5346 5344 5343 5341 5339 5338 5337 5335 5334 5332 5330 5329 5327 5325 5324 5323 5321 5320 5319 5318 5317 5317 5316 5315 5315 5314 5314 5315
5495 5493 5491 5489 5486 5484 5481 5478 5476 5473 5470 5467 5464 5461 5458 5454 5451 5448 5444 5441 5437 5433 5429 5425 5420 5415 5411 5406 5402 5398 5394 5390 5386 5382 5379 5376 5374 5373 5371 5369 5367 5365 5364 5363 5361 5360 5359 5358 5357 5356 5354 5353 5352 5351 5349 5348 5347 5345 5343 5342 5340 5339 5337 5335 5333 5332 5330 5328 5326 5325 5323 5321 5320 5318 5316 5315 5313 5312 5310 5309 5308 5308 5307 5307 5307 5307
5493 5490 5488 5486 5483 5481 5478 5475 5473 5469 5467 5463 5461 5458 5454 5451 5447 5443 5440 5437 5433 5429 5425 5420 5416 5411 5406 5401 5397 5393 5389 5385 5382 5378 5375 5373 5371 5369 5368 5366 5365 5363 5361 5360 5359 5358 5357 5355 5354 5353 5352 5351 5350 5348 5348 5346 5344 5343 5341 5340 5338 5337 5334 5332 5330 5328 5326 5324 5323 5321 5319 5318 5316 5314 5312 5310 5308 5306 5304 5302 5301 5300 5299 5298 5298 5299
5489 5487 5485 5483 5480 5478 5475 5472 5469 5466 5463 5460 5457 5454 5451 5447 5443 5440 5436 5432 5429 5425 5421 5416 5411 5406 5402 5397 5393 5389 5385 5381 5378 5375 5373 5370 5368 5367 5365 5364 5363 5361 5359 5358 5357 5356 5355 5353 5352 5351 5350 5348 5347 5346 5345 5343 5342 5340 5338 5337 5336 5334 5332 5329 5327 5324 5323 5321 5319 5318 5316 5314 5312 5310 5308 5305 5303 5301 5298 5296 5294 5292 5291 5291 5290 5290
5486 5484 5482 5479 5477 5474 5472 5469 5466 5463 5460 5457 5454 5451 5447 5444 5440 5437 5432 5428 5424 5420 5416 5412 5407 5402 5397 5392 5388 5385 5382 5378 5375 5373 5370 5368 5366 5364 5363 5362 5360 5359 5358 5357 5355 5354 5353 5351 5350 5348 5348 5346 5345 5344 5343 5341 5339 5337 5335 5333 5332 5331 5329 5327 5324 5321 5319 5318 5316 5314 5312 5310 5308 5306 5304 5301 5298 5296 5293 5291 5288 5286 5284 5283 5283 5283
5483 5481 5479 5476 5473 5471 5468 5465 5463 5460 5457 5454 5451 5448 5445 5441 5438 5434 5430 5426 5421 5417 5413 5408 5403 5399 5393 5388 5384 5381 5378 5376 5373 5370 5368 5366 5364 5363 5361 5360 5358 5357 5356 5355 5354 5353 5351 5350 5348 5347 5345 5344 5343 5341 5340 5338 5337 5335 5333 5330 5328 5327 5326 5324 5321 5318 5316 5314 5312 5310 5308 5306 5304 5302 5300 5298 5294 5292 5289 5286 5283 5281 5278 5277 5276 5275
5481 5478 5476 5473 5470 5468 5465 5462 5459 5457 5454 5451 5448 5445 5442 5438 5435 5431 5427 5423 5419 5414 5410 5405 5401 5396 5392 5387 5382 5378 5375 5373 5371 5368 5367 5365 5363 5361 5360 5358 5357 5356 5355 5353 5352 5351 5350 5348 5347 5345 5343 5342 5340 5338 5337 5335 5334 5332 5330 5327 5325 5323 5322 5320 5318 5315 5313 5310 5308 5306 5304 5302 5300 5298 5296 5294 5291 5288 5285 5282 5279 5277 5274 5272 5270 5269
5478 5475 5473 5470 5468 5465 5462 5459 5457 5454 5451 5448 5445 5442 5438 5435 5432 5428 5424 5420 5416 5411 5407 5403 5398 5393 5389 5385 5381 5377 5373 5371 5368 5367 5365 5363 5362 5360 5358 5357 5356 5354 5353 5352 5351 5349 5348 5347 5345 5343 5341 5339 5337 5335 5333 5332 5330 5328 5326 5324 5322 5320 5318 5316 5314 5312 5309 5307 5304 5302 5300 5298 5296 5294 5293 5290 5288 5285 5282 5279 5276 5273 5270 5268 5266 5264
5475 5473 5470 5467 5465 5462 5459 5457 5454 5451 5448 5445 5443 5439 5436 5432 5428 5425 5421 5417 5413 5408 5404 5400 5396 5392 5387 5383 5379 5376 5372 5369 5367 5365 5363 5362 5360 5359 5358 5356 5355 5353 5352 5351 5349 5348 5346 5344 5343 5341 5338 5337 5334 5332 5330 5328 5327 5325 5323 5321 5318 5316 5314 5313 5310 5308 5306 5303 5301 5298 5296 5294 5292 5290 5288 5287 5284 5282 5279 5276 5273 5270 5267 5265 5263 5261
5473 5470 5467 5465 5462 5460 5457 5454 5451 5448 5445 5443 5439 5436 5433 5429 5425 5422 5418 5414 5410 5406 5401 5398 5394 5390 5386 5382 5378 5375 5371 5368 5366 5364 5362 5360 5359 5358 5356 5355 5353 5352 5350 5349 5347 5346 5344 5342 5340 5338 5336 5333 5332 5329 5327 5325 5323 5321 5319 5317 5315 5313 5310 5308 5306 5304 5302 5299 5297 5295 5292 5290 5288 5286 5284 5283 5281 5278 5276 5273 5270 5267 5264 5262 5260 5258
5470 5468 5465 5463 5460 5457 5454 5452 5449 5446 5443 5440 5436 5433 5430 5426 5423 5419 5415 5411 5408 5403 5399 5395 5392 5388 5384 5381 5377 5374 5371 5368 5366 5363 5362 5360 5358 5356 5355 5353 5352 5350 5349 5347 5345 5343 5342 5340 5338 5335 5333 5330 5328 5326 5324 5322 5319 5316 5314 5312 5310 5308 5306 5304 5302 5300 5297 5295 5293 5291 5288 5286 5284 5282 5280 5278 5276 5274 5272 5270 5267 5264 5262 5259 5257 5255
5468 5465 5463 5460 5457 5455 5452 5449 5446 5443 5440 5437 5434 5430 5427 5423 5420 5417 5413 5409 5405 5401 5398 5393 5390 5386 5383 5379 5376 5373 5371 5368 5366 5363 5361 5359 5357 5355 5353 5352 5350 5348 5347 5345 5343 5342 5339 5337 5335 5332 5329 5327 5324 5322 5320 5318 5315 5312 5310 5308 5306 5304 5302 5300 5298 5296 5293 5291 5289 5287 5284 5282 5280 5278 5275 5273 5272 5270 5269 5267 5264 5261 5258 5256 5254 5253
5465 5463 5460 5458 5455 5452 5449 5447 5444 5441 5438 5435 5431 5428 5424 5421 5418 5414 5411 5407 5403 5399 5396 5392 5388 5385 5381 5378 5375 5372 5370 5367 5365 5363 5361 5359 5357 5354 5353 5351 5349 5347 5345 5343 5342 5339 5338 5335 5333 5330 5327 5324 5321 5319 5317 5315 5312 5309 5307 5304 5302 5300 5298 5296 5294 5292 5289 5287 5285 5283 5281 5278 5276 5274 5272 5269 5268 5266 5265 5263 5261 5258 5255 5253 5251 5249
5463 5460 5458 5455 5453 5450 5447 5444 5441 5438 5435 5432 5429 5426 5422 5418 5415 5411 5408 5404 5401 5397 5393 5390 5387 5383 5380 5377 5374 5371 5368 5366 5364 5362 5360 5358 5356 5354 5352 5350 5348 5346 5344 5342 5340 5338 5336 5334 5331 5328 5325 5322 5319 5316 5314 5312 5310 5307 5305 5302 5299 5297 5295 5293 5291 5289 5286 5283 5281 5279 5277 5274 5272 5270 5268 5265 5263 5262 5261 5259 5258 5255 5252 5249 5247 5246
5460 5458 5455 5453 5450 5447 5444 5442 5439 5436 5433 5430 5427 5423 5420 5416 5413 5409 5406 5402 5399 5395 5391 5388 5385 5382 5379 5376 5373 5370 5368 5365 5363 5360 5358 5357 5355 5353 5351 5348 5347 5344 5342 5340 5338 5336 5334 5332 5330 5327 5323 5320 5317 5314 5312 5309 5307 5304 5302 5300 5297 5294 5292 5290 5288 5286 5283 5280 5278 5276 5273 5271 5268 5266 5263 5261 5259 5258 5257 5256 5254 5252 5249 5247 5244 5242